When you browse on this site, cookies collect data to enhance your experience and personalize the content and advertising you see.
Visit our Privacy Policy to learn more. By continuing to use the site, you agree to this use of cookies and data.
  • Em Portugal
  • Lista de países
  • Para 7 dias
  • Temperatura da água
  • Mapas de satélite
  • Mapa do tempo
  • Widgets de tempo
  • user-avatar
    Iniciar Sessão

    Previsão horária em Chakhansur

    Hoje, 24 Julho, Quarta-feira

    Tempo Temperatura Precipitação Vento Pressão Humidade
    00:00 +35°C° 0 mm 5 m/s 708 mmHg 13%
    01:00 +35°C° 0 mm 5 m/s 708 mmHg 13%
    02:00 +34°C° 0 mm 6 m/s 708 mmHg 13%
    03:00 +33°C° 0 mm 6 m/s 708 mmHg 12%
    04:00 +32°C° 0 mm 6 m/s 708 mmHg 11%
    05:00 +33°C° 0 mm 6 m/s 708 mmHg 10%
    06:00 +34°C° 0 mm 5 m/s 709 mmHg 9%
    07:00 +35°C° 0 mm 5 m/s 710 mmHg 8%
    08:00 +39°C° 0 mm 6 m/s 710 mmHg 7%
    09:00 +41°C° 0 mm 6 m/s 710 mmHg 6%
    10:00 +45°C° 0 mm 7 m/s 710 mmHg 5%
    11:00 +48°C° 0 mm 8 m/s 709 mmHg 5%
    12:00 +49°C° 0 mm 8 m/s 709 mmHg 5%
    13:00 +51°C° 0 mm 9 m/s 709 mmHg 4%
    14:00 +51°C° 0 mm 8 m/s 709 mmHg 4%
    15:00 +51°C° 0 mm 7 m/s 708 mmHg 4%
    16:00 +50°C° 0 mm 5 m/s 707 mmHg 4%
    17:00 +47°C° 0 mm 4 m/s 707 mmHg 5%
    18:00 +43°C° 0 mm 3 m/s 707 mmHg 6%
    19:00 +39°C° 0 mm 2 m/s 706 mmHg 7%
    20:00 +39°C° 0 mm 3 m/s 706 mmHg 8%
    21:00 +38°C° 0 mm 4 m/s 706 mmHg 10%
    22:00 +37°C° 0 mm 5 m/s 706 mmHg 11%
    23:00 +37°C° 0 mm 5 m/s 706 mmHg 11%

    Amanhã, 25 Julho, Quinta-feira

    Tempo Temperatura Precipitação Vento Pressão Humidade
    00:00 +36°C° 0 mm 6 m/s 706 mmHg 12%
    01:00 +35°C° 0 mm 6 m/s 706 mmHg 12%
    02:00 +35°C° 0 mm 6 m/s 706 mmHg 14%
    03:00 +34°C° 0 mm 6 m/s 706 mmHg 16%
    04:00 +33°C° 0 mm 6 m/s 706 mmHg 19%
    05:00 +34°C° 0 mm 7 m/s 706 mmHg 18%
    06:00 +35°C° 0 mm 8 m/s 707 mmHg 18%
    07:00 +37°C° 0 mm 8 m/s 707 mmHg 17%
    08:00 +40°C° 0 mm 8 m/s 707 mmHg 15%
    09:00 +43°C° 0 mm 8 m/s 708 mmHg 12%
    10:00 +45°C° 0 mm 8 m/s 708 mmHg 10%
    11:00 +47°C° 0 mm 7 m/s 707 mmHg 9%
    12:00 +50°C° 0 mm 7 m/s 707 mmHg 7%
    13:00 +52°C° 0 mm 6 m/s 707 mmHg 6%
    14:00 +52°C° 0 mm 7 m/s 706 mmHg 6%
    15:00 +53°C° 0 mm 9 m/s 706 mmHg 6%
    16:00 +53°C° 0 mm 10 m/s 705 mmHg 5%
    17:00 +50°C° 0 mm 10 m/s 705 mmHg 6%
    18:00 +49°C° 0 mm 10 m/s 705 mmHg 7%
    19:00 +47°C° 0 mm 10 m/s 705 mmHg 8%
    20:00 +44°C° 0 mm 10 m/s 705 mmHg 9%
    21:00 +43°C° 0 mm 10 m/s 705 mmHg 11%
    22:00 +40°C° 0 mm 9 m/s 705 mmHg 12%
    23:00 +39°C° 0 mm 9 m/s 705 mmHg 13%

    Depois de amanhã, 26 Julho, Sexta-feira

    Tempo Temperatura Precipitação Vento Pressão Humidade
    00:00 +38°C° 0 mm 8 m/s 704 mmHg 14%
    01:00 +37°C° 0 mm 8 m/s 704 mmHg 15%
    02:00 +35°C° 0 mm 7 m/s 704 mmHg 16%
    03:00 +34°C° 0 mm 6 m/s 704 mmHg 16%
    04:00 +33°C° 0 mm 5 m/s 704 mmHg 17%
    05:00 +34°C° 0 mm 6 m/s 704 mmHg 16%
    06:00 +35°C° 0 mm 7 m/s 705 mmHg 15%
    07:00 +37°C° 0 mm 8 m/s 705 mmHg 14%
    08:00 +39°C° 0 mm 8 m/s 705 mmHg 12%
    09:00 +43°C° 0 mm 8 m/s 706 mmHg 10%
    10:00 +46°C° 0 mm 8 m/s 706 mmHg 8%
    11:00 +47°C° 0 mm 7 m/s 706 mmHg 7%
    12:00 +50°C° 0 mm 7 m/s 706 mmHg 6%
    13:00 +51°C° 0 mm 6 m/s 705 mmHg 6%
    14:00 +51°C° 0 mm 7 m/s 705 mmHg 5%
    15:00 +52°C° 0 mm 7 m/s 704 mmHg 5%
    16:00 +52°C° 0 mm 7 m/s 704 mmHg 5%
    17:00 +50°C° 0 mm 8 m/s 704 mmHg 5%
    18:00 +48°C° 0 mm 9 m/s 704 mmHg 6%
    19:00 +45°C° 0 mm 10 m/s 703 mmHg 7%
    20:00 +44°C° 0 mm 9 m/s 704 mmHg 7%
    21:00 +41°C° 0 mm 8 m/s 704 mmHg 8%
    22:00 +39°C° 0 mm 8 m/s 704 mmHg 8%
    23:00 +38°C° 0 mm 7 m/s 704 mmHg 10%

    27 Julho, Sábado

    Tempo Temperatura Precipitação Vento Pressão Humidade
    00:00 +36°C° 0 mm 7 m/s 704 mmHg 11%
    01:00 +35°C° 0 mm 7 m/s 703 mmHg 13%
    02:00 +33°C° 0 mm 6 m/s 703 mmHg 14%
    03:00 +32°C° 0 mm 5 m/s 703 mmHg 15%
    04:00 +30°C° 0 mm 4 m/s 703 mmHg 16%
    05:00 +32°C° 0 mm 4 m/s 704 mmHg 15%
    06:00 +33°C° 0 mm 4 m/s 704 mmHg 14%
    07:00 +34°C° 0 mm 4 m/s 705 mmHg 13%
    08:00 +37°C° 0 mm 4 m/s 706 mmHg 11%
    09:00 +41°C° 0 mm 4 m/s 706 mmHg 9%
    10:00 +43°C° 0 mm 4 m/s 706 mmHg 7%
    11:00 +45°C° 0 mm 3 m/s 706 mmHg 7%
    12:00 +47°C° 0 mm 3 m/s 706 mmHg 6%
    13:00 +48°C° 0 mm 2 m/s 705 mmHg 5%
    14:00 +49°C° 0 mm 2 m/s 705 mmHg 5%
    15:00 +49°C° 0 mm 2 m/s 705 mmHg 5%
    16:00 +50°C° 0 mm 2 m/s 704 mmHg 5%
    17:00 +47°C° 0 mm 2 m/s 704 mmHg 6%
    18:00 +43°C° 0 mm 1 m/s 704 mmHg 7%
    19:00 +40°C° 0 mm 1 m/s 703 mmHg 8%
    20:00 +39°C° 0 mm 3 m/s 704 mmHg 9%
    21:00 +40°C° 0 mm 4 m/s 704 mmHg 9%
    22:00 +39°C° 0 mm 5 m/s 705 mmHg 10%
    23:00 +37°C° 0 mm 5 m/s 705 mmHg 11%

    28 Julho, Domingo

    Tempo Temperatura Precipitação Vento Pressão Humidade
    00:00 +36°C° 0 mm 6 m/s 705 mmHg 12%
    01:00 +35°C° 0 mm 6 m/s 704 mmHg 13%
    02:00 +34°C° 0 mm 6 m/s 705 mmHg 15%
    03:00 +33°C° 0 mm 5 m/s 705 mmHg 16%
    04:00 +33°C° 0 mm 5 m/s 705 mmHg 17%
    05:00 +34°C° 0 mm 5 m/s 705 mmHg 16%
    06:00 +35°C° 0 mm 5 m/s 706 mmHg 15%
    07:00 +36°C° 0 mm 5 m/s 706 mmHg 14%
    08:00 +40°C° 0 mm 5 m/s 706 mmHg 12%
    09:00 +43°C° 0 mm 5 m/s 707 mmHg 10%
    10:00 +46°C° 0 mm 5 m/s 707 mmHg 7%
    11:00 +48°C° 0 mm 5 m/s 707 mmHg 7%
    12:00 +49°C° 0 mm 5 m/s 707 mmHg 6%
    13:00 +52°C° 0 mm 5 m/s 707 mmHg 5%
    14:00 +52°C° 0 mm 5 m/s 706 mmHg 5%
    15:00 +52°C° 0 mm 5 m/s 706 mmHg 5%
    16:00 +53°C° 0 mm 5 m/s 705 mmHg 5%
    17:00 +48°C° 0 mm 4 m/s 705 mmHg 6%
    18:00 +44°C° 0 mm 3 m/s 705 mmHg 7%
    19:00 +40°C° 0 mm 2 m/s 704 mmHg 8%
    20:00 +40°C° 0 mm 2 m/s 705 mmHg 8%
    21:00 +39°C° 0 mm 3 m/s 705 mmHg 8%
    22:00 +40°C° 0 mm 4 m/s 705 mmHg 8%
    23:00 +38°C° 0 mm 4 m/s 705 mmHg 10%

    29 Julho, Segunda-feira

    Tempo Temperatura Precipitação Vento Pressão Humidade
    00:00 +36°C° 0 mm 4 m/s 705 mmHg 11%
    01:00 +35°C° 0 mm 4 m/s 705 mmHg 12%
    02:00 +35°C° 0 mm 4 m/s 705 mmHg 13%
    03:00 +34°C° 0 mm 4 m/s 705 mmHg 15%
    04:00 +34°C° 0 mm 4 m/s 706 mmHg 16%
    05:00 +35°C° 0 mm 5 m/s 706 mmHg 15%
    06:00 +36°C° 0 mm 5 m/s 707 mmHg 14%
    07:00 +39°C° 0 mm 6 m/s 707 mmHg 13%
    08:00 +42°C° 0 mm 5 m/s 708 mmHg 11%
    09:00 +46°C° 0 mm 5 m/s 708 mmHg 9%
    10:00 +49°C° 0 mm 4 m/s 708 mmHg 7%
    11:00 +50°C° 0 mm 4 m/s 708 mmHg 6%
    12:00 +51°C° 0 mm 4 m/s 708 mmHg 5%
    13:00 +54°C° 0 mm 5 m/s 707 mmHg 5%
    14:00 +54°C° 0 mm 5 m/s 707 mmHg 4%
    15:00 +54°C° 0 mm 5 m/s 707 mmHg 4%
    16:00 +54°C° 0 mm 5 m/s 706 mmHg 4%
    17:00 +50°C° 0 mm 5 m/s 706 mmHg 5%
    18:00 +48°C° 0 mm 4 m/s 705 mmHg 6%
    19:00 +44°C° 0 mm 4 m/s 705 mmHg 7%
    20:00 +43°C° 0 mm 4 m/s 705 mmHg 8%
    21:00 +40°C° 0 mm 3 m/s 705 mmHg 8%
    22:00 +39°C° 0 mm 3 m/s 705 mmHg 9%
    23:00 +38°C° 0 mm 3 m/s 705 mmHg 11%
    Mostrar mais